Sitiawan, Malaysia

1:22 PM MYT on September 30, 2016 (GMT +0800)
Sitiawan

Weather History for WMBA - January, 2014

Change the Weather History Date:

Thursday, January 23, 2014

  Actual Average Record
Temperature  
Mean Temperature 78 °F -  
Max Temperature 88 °F - - ()
Min Temperature 69 °F - - ()
Cooling Degree Days 14    
Growing Degree Days 28 (Base 50)    
Moisture  
Dew Point 70 °F    
Average Humidity 75    
Maximum Humidity 94    
Minimum Humidity 47    
Precipitation  
Precipitation 0.00 in - - ()
Sea Level Pressure  
Sea Level Pressure 29.90 in    
Wind  
Wind Speed 2 mph ()    
Max Wind Speed 5 mph    
Max Gust Speed -    
Visibility 6.2 miles    
Events      
T = Trace of Precipitation, MM = Missing Value Source: Averaged Metar Reports

Daily Weather History Graph

Daily Weather History Graph

Search for Another Location

Airport or City:

Trip Planner

Search our weather history database for the weather conditions in past years. The results will help you decide how hot, cold, wet, or windy it might be!

Date:

Astronomy

Jan. 23, 2014 Rise Set
Actual Time 7:31 AM MYT 7:26 PM MYT
Civil Twilight 7:09 AM MYT 7:48 PM MYT
Nautical Twilight 6:43 AM MYT 8:14 PM MYT
Astronomical Twilight 6:18 AM MYT 8:39 PM MYT
Moon 12:01 AM MYT (1/23) 12:19 PM MYT (1/23)
Length of Visible Light 12h 39m
Length of Day
11h 55m
Waning Gibbous, 61% of the Moon is Illuminated
Jan 23
Waning Gibbous
Jan 24
Last Quarter
Jan 31
New
Feb 7
First Quarter
Feb 15
Full

Hourly Weather History & Observations

Time (MYT) Temp. Heat Index Dew Point Humidity Pressure Visibility Wind Dir Wind Speed Gust Speed Precip Events Conditions
12:00 AM 75.2 °F - 71.6 °F 89% 29.92 in 6.2 mi Calm Calm - N/A   Mostly Cloudy
1:00 AM 73.4 °F - 71.6 °F 94% 29.92 in 6.2 mi Calm Calm - N/A   Mostly Cloudy
2:00 AM 74 °F - 72 °F 91% 29.92 in 7 mi North 1.2 mph - -   Haze
2:00 AM 73.4 °F - 71.6 °F 94% 29.92 in 6.2 mi North 1.2 mph - N/A   Mostly Cloudy
3:00 AM 73.4 °F - 69.8 °F 88% 29.89 in 5.6 mi East 2.3 mph - N/A   Mostly Cloudy
4:00 AM 71.6 °F - 69.8 °F 94% 29.86 in 5.6 mi East 1.2 mph - N/A   Mostly Cloudy
5:00 AM 73 °F - 69 °F 84% 29.89 in 6 mi East 2.3 mph - -   Haze
5:00 AM 73.4 °F - 69.8 °F 88% 29.89 in 5.6 mi East 2.3 mph - N/A   Mostly Cloudy
6:00 AM 71.6 °F - 68.0 °F 88% 29.89 in 5.6 mi East 2.3 mph - N/A   Mostly Cloudy
7:00 AM 71.6 °F - 68.0 °F 88% 29.89 in 5.6 mi ENE 2.3 mph - N/A   Mostly Cloudy
8:00 AM 70 °F - 67 °F 88% 29.92 in 6 mi NE 2.3 mph - -   Haze
8:00 AM 69.8 °F - 68.0 °F 94% 29.92 in 6.2 mi NE 2.3 mph - N/A   Mostly Cloudy
9:00 AM 71.6 °F - 68.0 °F 88% 29.95 in 6.2 mi ENE 2.3 mph - N/A   Mostly Cloudy
10:00 AM 77.0 °F - 69.8 °F 78% 29.95 in 6.2 mi NE 4.6 mph - N/A   Mostly Cloudy
11:00 AM 82 °F - 71 °F 60% 29.97 in 7 mi East 4.6 mph - -   Haze
11:00 AM 82.4 °F 86.3 °F 69.8 °F 66% 29.95 in 6.2 mi East 4.6 mph - N/A   Mostly Cloudy
12:00 PM 84.2 °F 89.6 °F 71.6 °F 66% 29.95 in 6.2 mi East 3.5 mph - N/A   Mostly Cloudy
1:00 PM 87.8 °F 93.8 °F 71.6 °F 58% 29.89 in 6.2 mi East 3.5 mph - N/A   Mostly Cloudy
2:00 PM 87 °F - 69 °F 47% 29.88 in 7 mi NE 4.6 mph - -   Haze
2:00 PM 87.8 °F 92.6 °F 69.8 °F 55% 29.86 in 6.2 mi NE 4.6 mph - N/A   Mostly Cloudy
3:00 PM 86.0 °F 89.4 °F 68.0 °F 55% 29.83 in 6.2 mi NE 4.6 mph - N/A   Mostly Cloudy
4:00 PM 86.0 °F 90.4 °F 69.8 °F 58% 29.83 in 6.2 mi ENE 3.5 mph - N/A   Mostly Cloudy
5:00 PM 86 °F - 69 °F 47% 29.84 in 7 mi North 1.2 mph - -   Haze
5:00 PM 86.0 °F 89.4 °F 68.0 °F 55% 29.83 in 6.2 mi North 1.2 mph - N/A   Mostly Cloudy
6:00 PM 84.2 °F 89.6 °F 71.6 °F 66% 29.83 in 6.2 mi West 4.6 mph - N/A   Mostly Cloudy
7:00 PM 84.2 °F 89.6 °F 71.6 °F 66% 29.86 in 6.2 mi WSW 3.5 mph - N/A   Mostly Cloudy
8:00 PM 82 °F - 72 °F 65% 29.89 in 7 mi West 3.5 mph - -   Haze
8:00 PM 82.4 °F 87.2 °F 71.6 °F 70% 29.89 in 6.2 mi West 3.5 mph - N/A   Mostly Cloudy
9:00 PM 80.6 °F 85.4 °F 73.4 °F 79% 29.89 in 6.2 mi West 1.2 mph - N/A   Mostly Cloudy
10:00 PM 78.8 °F - 73.4 °F 83% 29.92 in 5.6 mi NNE 1.2 mph - N/A   Mostly Cloudy
11:00 PM 77 °F - 73 °F 85% 29.92 in 6 mi NNE 2.3 mph - -   Haze
11:00 PM 77.0 °F - 73.4 °F 89% 29.92 in 5.6 mi NNE 2.3 mph - N/A   Mostly Cloudy